User: anonymous   Login
Location: Unspecified
(0.0000°N, 0.0000°E)
Time: 23:56:53
(UTC+00:00)
Language:

APRIZESAT 5 - Orbit

View from above orbital plane
View from above orbital plane
View from above satellite
View from above satellite

Ground track
Ground track

The orbit data is extracted from the following two-line orbital elements,

1 37792U 11044E   21332.58821445  .00000183  00000-0  34686-4 0  9999
2 37792  98.3512 196.7577 0056789 284.4133  75.0777 14.75553929553376
Epoch (UTC): 28 November 2021 14:07:01
Eccentricity: 0.0056789
inclination: 98.3512°
perigee height: 603 km
apogee height: 683 km
right ascension of ascending node: 196.7577°
argument of perigee: 284.4133°
revolutions per day: 14.75553929
mean anomaly at epoch: 75.0777°
orbit number at epoch: 55337

The dashed part of the orbit path shows where the satellite is in the earth's shadow,  

DLR